Regional Weather Roundup
Issued by NWS

Home | Current Version | Previous Version | Graphics & Text | Print | Product List | Glossary On
Versions: 1 2 3 4 5 6 7 8 9 10 11 12 13 14 15 16 17 18 19 20 21 22 23 24 25 26 27 28 29 30 31 32 33 34 35 36 37 38 39 40 41 42 43 44 45 46 47 48 49 50
000
ASUS43 KFSD 210210
RWRSD

WEATHER ROUNDUP FOR SOUTH DAKOTA
NATIONAL WEATHER SERVICE SIOUX FALLS SD
900 PM CDT WED AUG 20 2014

NOTE: "FAIR" INDICATES FEW OR NO CLOUDS BELOW 12,000 FEET WITH NO
SIGNIFICANT WEATHER AND/OR OBSTRUCTIONS TO VISIBILITY.


SDZ001>005-009-010-012>017-210300-
NORTHWEST AND NORTH CENTRAL SOUTH DAKOTA

CITY           SKY/WX    TMP DP  RH WIND       PRES   REMARKS
BUFFALO          N/A     69  59  70 N10       29.75R
FAITH            N/A     72  63  73 N8        29.73S
MOBRIDGE       LGT RAIN  75  68  78 E18G28    29.62F
$$

SDZ012>016-024>037-041>051-057-063-072>074-210300-
SOUTHWEST AND SOUTH CENTRAL SOUTH DAKOTA

CITY           SKY/WX    TMP DP  RH WIND       PRES   REMARKS
RAPID CTY ARPT CLEAR     73  55  53 N9        29.78R
PIERRE         CLEAR     79  71  76 SE17      29.64R
CUSTER         CLEAR     71  46  40 N3        29.94R
ELLSWORTH AFB  CLEAR     78  56  47 N12       29.79R
PHILIP         MOCLDY    80  56  43 NW14      29.67R
PINE RIDGE     CLEAR     77  57  50 N9        29.77R
WINNER         FAIR      82  69  64 SE9       29.68S
$$

SDZ004>011-016>023-039-040-210300-
NORTHEAST SOUTH DAKOTA

CITY           SKY/WX    TMP DP  RH WIND       PRES   REMARKS
ABERDEEN       MOCLDY    74  68  81 E10       29.72R
WATERTOWN      CLOUDY    74  68  81 SE7       29.77S
SISSETON         N/A     75  70  84 SE7       29.76S
$$

SDZ017-020-022-023-036>040-048>070-210300-
SOUTHEAST SOUTH DAKOTA

CITY           SKY/WX    TMP DP  RH WIND       PRES   REMARKS
SIOUX FALLS    CLOUDY    73  69  87 SE7       29.77S
HURON          CLEAR     76  69  79 SE7       29.71R
CHAMBERLAIN    CLEAR     76  72  88 SE10      29.68S
MITCHELL       MOCLDY    77  72  84 SE10      29.71S
YANKTON        MOCLDY    77  73  88 E8        29.72S
$$

ABBREVIATIONS USED IN REMARKS
   TC - TEMPERATURE IN CELSIUS
  WCI - WIND CHILL INDEX
   HX - HEAT INDEX
  VSB - VISIBILITY



USA.gov is the U.S. government's official web portal to all federal, state and local government web resources and services.